EW2295 Weather Reports


Display with metric or nautical units.
time (UTC)temp
F
wind
direction
speed
MPH
gust
MPH
rain 1hr
in
rain 24hr
in
rain mn
in
humidity
%
barometer
mb
20190325101705 43 290 9.0 18.0 0.00 0.02 0.02 84 1019.2
20190325101205 43 246 9.0 18.0 0.00 0.02 0.02 83 1019.0
20190325100704 43 246 9.0 22.0 0.00 0.02 0.02 82 1019.0
20190325100204 44 180 9.0 22.0 0.00 0.02 0.02 81 1019.1
20190325095705 44 288 10.0 22.0 0.00 0.02 0.02 81 1019.1
20190325095204 44 223 9.0 22.0 0.00 0.02 0.02 80 1019.1
20190325094704 44 275 7.0 20.0 0.00 0.02 0.02 81 1019.0
20190325094204 44 298 7.0 20.0 0.00 0.02 0.02 81 1019.1
20190325093704 44 216 8.0 21.0 0.00 0.02 0.02 81 1019.2
20190325093204 44 277 8.0 22.0 0.00 0.02 0.02 81 1019.3
20190325092704 44 224 10.0 22.0 0.00 0.02 0.02 82 1019.2
20190325092204 43 267 9.0 23.0 0.00 0.02 0.02 83 1019.2
20190325091704 43 292 8.0 23.0 0.00 0.02 0.02 84 1019.1
20190325091204 42 270 9.0 20.0 0.00 0.02 0.02 85 1019.1
20190325090704 42 220 10.0 24.0 0.00 0.02 0.02 85 1019.0
20190325090205 42 288 11.0 24.0 0.00 0.02 0.02 84 1019.0
20190325085704 42 275 8.0 24.0 0.00 0.02 0.02 82 1019.1
20190325085205 43 266 7.0 23.0 0.00 0.02 0.02 82 1018.9
20190325084705 42 276 9.0 23.0 0.00 0.02 0.02 82 1018.8
20190325084204 42 244 10.0 23.0 0.00 0.02 0.02 82 1018.7
20190325083705 42 292 9.0 21.0 0.00 0.02 0.02 82 1018.6
20190325083205 43 272 8.0 18.0 0.00 0.02 0.02 82 1018.5
20190325082705 43 200 8.0 20.0 0.00 0.02 0.02 81 1018.6
20190325082205 43 246 10.0 20.0 0.00 0.02 0.02 81 1018.5
20190325081704 43 289 9.0 19.0 0.00 0.02 0.02 81 1018.6
20190325081204 43 261 7.0 16.0 0.00 0.02 0.02 82 1018.6
20190325080704 43 273 7.0 16.0 0.00 0.02 0.02 82 1018.5
20190325080204 43 271 6.0 15.0 0.00 0.02 0.02 83 1018.5
20190325075705 43 250 7.0 15.0 0.00 0.02 0.02 84 1018.5
20190325075204 43 240 8.0 15.0 0.00 0.02 0.02 85 1018.4
20190325074705 42 214 7.0 15.0 0.00 0.02 0.02 86 1018.4
20190325074204 42 261 7.0 14.0 0.00 0.02 0.02 86 1018.4
20190325073704 42 208 6.0 16.0 0.00 0.02 0.02 86 1018.4
20190325073204 42 261 6.0 16.0 0.00 0.02 0.02 87 1018.4
20190325072704 42 187 7.0 16.0 0.00 0.02 0.02 87 1018.5
20190325072204 41 285 7.0 14.0 0.00 0.02 0.02 87 1018.5
20190325071705 41 218 6.0 16.0 0.00 0.02 0.02 87 1018.5
20190325071204 41 222 6.0 16.0 0.00 0.02 0.02 88 1018.5
20190325070704 41 251 7.0 16.0 0.00 0.02 0.02 88 1018.7
20190325070205 41 261 7.0 14.0 0.00 0.02 0.02 88 1018.6
20190325065705 40 272 7.0 14.0 0.00 0.02 0.02 89 1018.6
20190325065205 40 204 6.0 12.0 0.00 0.02 0.02 89 1018.5
20190325064704 40 238 6.0 12.0 0.00 0.02 0.02 89 1018.5
20190325064205 40 213 6.0 12.0 0.00 0.02 0.02 90 1018.5
20190325063705 40 271 4.0 12.0 0.00 0.02 0.02 90 1018.6
20190325063205 40 250 4.0 12.0 0.00 0.02 0.02 91 1018.6
20190325062705 40 237 4.0 12.0 0.00 0.02 0.02 91 1018.5
20190325062205 40 231 3.0 10.0 0.00 0.02 0.02 91 1018.5
20190325061704 40 252 3.0 8.0 0.00 0.02 0.02 91 1018.5
20190325061205 40 257 2.0 9.0 0.00 0.02 0.02 91 1018.5
20190325060704 40 256 2.0 11.0 0.00 0.02 0.02 91 1018.5
20190325060204 40 261 4.0 11.0 0.00 0.02 0.02 90 1018.5
20190325055704 40 265 5.0 11.0 0.00 0.02 0.02 91 1018.5
20190325055205 40 219 5.0 11.0 0.00 0.02 0.02 91 1018.5
20190325054704 40 281 4.0 11.0 0.00 0.02 0.02 91 1018.6
20190325054205 40 294 3.0 11.0 0.01 0.02 0.02 90 1018.6
20190325053707 40 281 2.0 8.0 0.01 0.02 0.02 90 1018.6
20190325053206 40 209 2.0 10.0 0.01 0.02 0.02 90 1018.5
20190325052704 40 214 3.0 10.0 0.02 0.02 0.02 90 1018.5
20190325052204 40 275 4.0 10.0 0.02 0.02 0.02 90 1018.6
20190325051705 40 288 3.0 9.0 0.02 0.02 0.02 90 1018.5
20190325051204 40 271 2.0 9.0 0.02 0.02 0.02 90 1018.5
20190325050705 40 215 1.0 8.0 0.02 0.02 0.02 89 1018.5
20190325050205 40 284 2.0 13.0 0.02 0.02 0.02 89 1018.6
20190325045705 40 299 4.0 14.0 0.02 0.02 0.02 88 1018.6
20190325045204 41 286 5.0 14.0 0.02 0.02 0.02 88 1018.5
20190325044705 41 298 6.0 14.0 0.02 0.02 0.02 88 1018.6
20190325044205 41 334 7.0 14.0 0.01 0.01 0.01 87 1018.6
20190325043704 42 269 7.0 14.0 0.01 0.01 0.01 86 1018.6
20190325043204 42 266 6.0 14.0 0.01 0.01 0.01 86 1018.5
20190325042704 42 290 6.0 17.0 0.00 0.00 0.00 85 1018.4
20190325042205 42 274 7.0 17.0 0.00 0.00 0.00 84 1018.3
20190325041704 42 259 6.0 15.0 0.00 0.00 0.00 83 1018.2
20190325041204 42 243 6.0 14.0 0.00 0.00 0.00 81 1018.2
20190325040704 42 264 6.0 16.0 0.00 0.00 0.00 80 1018.1
20190325040205 42 218 7.0 16.0 0.00 0.00 0.00 79 1018.1
20190325035705 42 222 8.0 16.0 0.00 0.00 0.00 79 1018.0
20190325035205 42 304 6.0 16.0 0.00 0.00 0.00 79 1018.0
20190325034704 42 281 6.0 16.0 0.00 0.00 0.00 79 1017.9
20190325034205 42 247 8.0 16.0 0.00 0.00 0.00 79 1018.0
20190325033704 42 222 8.0 17.0 0.00 0.00 0.00 79 1018.0
20190325033205 42 267 8.0 17.0 0.00 0.00 0.00 78 1018.1
20190325032705 42 225 8.0 18.0 0.00 0.00 0.00 78 1018.2
20190325032205 42 273 8.0 18.0 0.00 0.00 0.00 78 1018.2
20190325031705 42 216 7.0 18.0 0.00 0.00 0.00 78 1018.1
20190325031204 42 236 6.0 15.0 0.00 0.00 0.00 77 1018.2
20190325030704 42 226 7.0 15.0 0.00 0.00 0.00 77 1018.3
20190325030205 42 250 7.0 14.0 0.00 0.00 0.00 77 1018.4
20190325025705 42 265 7.0 15.0 0.00 0.00 0.00 76 1018.5
20190325025205 42 225 8.0 16.0 0.00 0.00 0.00 76 1018.6
20190325024705 42 248 8.0 17.0 0.00 0.00 0.00 76 1018.6
20190325024205 42 222 9.0 17.0 0.00 0.00 0.00 75 1018.8
20190325023704 42 215 9.0 17.0 0.00 0.00 0.00 75 1018.8
20190325022705 42 217 7.0 17.0 0.00 0.00 0.00 74 1018.9
20190325022205 42 259 9.0 17.0 0.00 0.00 0.00 74 1019.0
20190325021705 42 215 8.0 14.0 0.00 0.00 0.00 73 1019.1
20190325021205 42 254 7.0 16.0 0.00 0.00 0.00 73 1019.1
20190325020704 42 222 7.0 16.0 0.00 0.00 0.00 73 1019.1
20190325020206 42 246 8.0 20.0 0.00 0.00 0.00 73 1019.2
20190325015704 42 238 9.0 20.0 0.00 0.00 0.00 73 1019.3
20190325015204 42 220 9.0 20.0 0.00 0.00 0.00 73 1019.4
20190325014705 42 229 8.0 16.0 0.00 0.00 0.00 74 1019.4
20190325014204 42 238 7.0 15.0 0.00 0.00 0.00 74 1019.5
20190325013704 42 252 8.0 17.0 0.00 0.00 0.00 75 1019.6
20190325013205 42 244 8.0 17.0 0.00 0.00 0.00 75 1019.8
20190325012705 42 232 7.0 13.0 0.00 0.00 0.00 75 1019.9
20190325012205 42 226 7.0 13.0 0.00 0.00 0.00 76 1020.0
20190325011705 42 238 7.0 13.0 0.00 0.00 0.00 76 1020.0
20190325011205 41 241 6.0 12.0 0.00 0.00 0.00 77 1020.1
20190325010704 41 205 7.0 12.0 0.00 0.00 0.00 77 1020.2
20190325010205 41 229 6.0 12.0 0.00 0.00 0.00 77 1020.3
20190325005704 41 238 6.0 12.0 0.00 0.00 0.00 77 1020.4
20190325005204 41 208 6.0 14.0 0.00 0.00 0.00 77 1020.5
20190325004705 41 234 5.0 14.0 0.00 0.00 0.00 77 1020.6
20190325004205 41 213 4.0 14.0 0.00 0.00 0.00 77 1020.6
20190325003705 40 225 5.0 10.0 0.00 0.00 0.00 77 1020.7
20190325003204 40 192 5.0 10.0 0.00 0.00 0.00 76 1020.8
20190325002704 40 211 4.0 8.0 0.00 0.00 0.00 76 1020.9
20190325002204 40 225 3.0 7.0 0.00 0.00 0.00 76 1021.1
20190325001705 40 225 2.0 6.0 0.00 0.00 0.00 75 1021.1
20190325001204 40 233 2.0 6.0 0.00 0.00 0.00 75 1021.2
20190325000704 40 212 2.0 8.0 0.00 0.00 0.00 75 1021.2
20190325000204 40 197 2.0 9.0 0.00 0.00 0.00 75 1021.4
20190324235704 40 230 3.0 9.0 0.00 0.00 0.00 75 1021.4
20190324235204 40 252 4.0 9.0 0.00 0.00 0.00 75 1021.5
20190324234704 40 237 4.0 8.0 0.00 0.00 0.00 75 1021.6
20190324234205 40 229 4.0 8.0 0.00 0.00 0.00 75 1021.6
20190324233704 40 236 3.0 7.0 0.00 0.00 0.00 75 1021.8
20190324233204 40 240 4.0 8.0 0.00 0.00 0.00 75 1021.9
20190324232706 41 227 4.0 8.0 0.00 0.00 0.00 75 1022.0
20190324232205 41 232 3.0 8.0 0.00 0.00 0.00 74 1022.0
20190324231705 41 231 3.0 6.0 0.00 0.00 0.00 74 1022.2
20190324231204 41 236 3.0 6.0 0.00 0.00 0.00 74 1022.2
20190324230705 41 225 2.0 8.0 0.00 0.00 0.00 74 1022.3
20190324230204 41 209 2.0 8.0 0.00 0.00 0.00 74 1022.4
20190324225705 41 218 2.0 8.0 0.00 0.00 0.00 74 1022.5
20190324225204 41 228 3.0 6.0 0.00 0.00 0.00 74 1022.5
20190324224704 41 252 3.0 6.0 0.00 0.00 0.00 73 1022.5
20190324224205 42 234 3.0 6.0 0.00 0.00 0.00 73 1022.6
20190324223705 42 211 3.0 7.0 0.00 0.00 0.00 73 1022.7
20190324223204 42 252 2.0 7.0 0.00 0.00 0.00 73 1022.8
20190324222704 42 223 1.0 6.0 0.00 0.00 0.00 73 1022.8
20190324222205 42 268 1.0 7.0 0.00 0.00 0.00 72 1022.9
20190324221705 42 261 1.0 10.0 0.00 0.00 0.00 72 1022.9
20190324221205 43 262 2.0 10.0 0.00 0.00 0.00 72 1022.9
20190324220705 43 268 4.0 10.0 0.00 0.00 0.00 72 1022.9
20190324220205 43 242 3.0 8.0 0.00 0.00 0.00 72 1023.0
20190324215705 43 290 2.0 7.0 0.00 0.00 0.00 72 1023.0
20190324215205 43 217 2.0 7.0 0.00 0.00 0.00 72 1023.0
20190324214704 43 277 1.0 7.0 0.00 0.00 0.00 71 1023.0
20190324214205 43 275 1.0 5.0 0.00 0.00 0.00 71 1023.1
20190324213705 43 225 1.0 5.0 0.00 0.00 0.00 70 1023.2
20190324213205 43 281 1.0 4.0 0.00 0.00 0.00 70 1023.3
20190324212704 44 268 0.0 5.0 0.00 0.00 0.00 69 1023.3
20190324212205 44 268 0.0 5.0 0.00 0.00 0.00 69 1023.3
20190324211705 44 317 0.0 5.0 0.00 0.00 0.00 69 1023.3
20190324211205 44 236 0.0 7.0 0.00 0.00 0.00 69 1023.3
20190324210705 44 271 1.0 7.0 0.00 0.00 0.00 69 1023.3
20190324210204 43 278 2.0 7.0 0.00 0.00 0.00 70 1023.4
20190324205705 43 264 1.0 7.0 0.00 0.00 0.00 71 1023.5
20190324205205 42 268 0.0 6.0 0.00 0.00 0.00 72 1023.5
20190324204705 42 300 0.0 6.0 0.00 0.00 0.00 72 1023.5
20190324204205 42 281 0.0 6.0 0.00 0.00 0.00 72 1023.5
20190324203704 42 263 1.0 5.0 0.00 0.00 0.00 72 1023.5
20190324203204 42 289 0.0 8.0 0.00 0.00 0.00 72 1023.6
20190324202704 42 209 0.0 8.0 0.00 0.00 0.00 71 1023.5
20190324202204 42 257 0.0 1.0 0.00 0.00 0.00 71 1023.5
20190324201705 42 253 0.0 1.0 0.00 0.00 0.00 71 1023.5
20190324201205 42 249 0.0 8.0 0.00 0.00 0.00 71 1023.5
20190324200705 42 233 1.0 8.0 0.00 0.00 0.00 70 1023.5
20190324200205 42 214 1.0 8.0 0.00 0.00 0.00 71 1023.6
20190324195705 43 247 0.0 0.0 0.00 0.00 0.00 70 1023.6
20190324195205 43 240 0.0 0.0 0.00 0.00 0.00 69 1023.7
20190324194705 43 280 0.0 0.0 0.00 0.00 0.00 69 1023.6
20190324194205 43 280 0.0 0.0 0.00 0.00 0.00 68 1023.6
20190324193704 43 280 0.0 0.0 0.00 0.00 0.00 68 1023.6
20190324193205 43 280 0.0 0.0 0.00 0.00 0.00 68 1023.6
20190324192705 43 280 0.0 0.0 0.00 0.00 0.00 68 1023.6
20190324192205 44 280 0.0 0.0 0.00 0.00 0.00 67 1023.6
20190324191704 44 280 0.0 0.0 0.00 0.00 0.00 67 1023.7
20190324191206 44 280 0.0 0.0 0.00 0.00 0.00 67 1023.6
20190324190705 44 280 0.0 0.0 0.00 0.00 0.00 66 1023.7
20190324190204 44 280 0.0 0.0 0.00 0.00 0.00 66 1023.8
20190324185705 44 280 0.0 0.0 0.00 0.00 0.00 65 1023.8
20190324185204 44 292 0.0 0.0 0.00 0.00 0.00 65 1023.8
20190324184705 44 292 0.0 0.0 0.00 0.00 0.00 64 1023.9
20190324184205 45 281 0.0 0.0 0.00 0.00 0.00 63 1023.8
20190324183704 45 281 0.0 0.0 0.00 0.00 0.00 63 1023.9
20190324183205 45 281 0.0 4.0 0.00 0.00 0.00 63 1023.8
20190324182704 46 275 0.0 4.0 0.00 0.00 0.00 63 1023.8
20190324182205 46 308 0.0 4.0 0.00 0.00 0.00 63 1023.8
20190324181704 47 264 0.0 1.0 0.00 0.00 0.00 63 1023.7
20190324181204 47 319 0.0 1.0 0.00 0.00 0.00 62 1023.7
20190324180704 47 319 0.0 7.0 0.00 0.00 0.00 62 1023.7
20190324180205 48 277 1.0 7.0 0.00 0.00 0.00 61 1023.7
20190324175705 48 296 1.0 7.0 0.00 0.00 0.00 60 1023.7
20190324175204 48 290 0.0 5.0 0.00 0.00 0.00 60 1023.7
20190324174704 48 284 0.0 10.0 0.00 0.00 0.00 59 1023.6
20190324174205 49 281 1.0 10.0 0.00 0.00 0.00 58 1023.7
20190324173705 49 295 1.0 9.0 0.00 0.00 0.00 57 1023.5
20190324173205 49 273 1.0 9.0 0.00 0.00 0.00 58 1023.6
20190324172705 49 283 3.0 8.0 0.00 0.00 0.00 57 1023.6
20190324172204 49 292 1.0 8.0 0.00 0.00 0.00 58 1023.6
20190324171704 49 323 1.0 8.0 0.00 0.00 0.00 59 1023.6
20190324171204 49 277 1.0 8.0 0.00 0.00 0.00 58 1023.6
20190324170704 49 336 1.0 8.0 0.00 0.00 0.00 58 1023.6
20190324170205 49 296 1.0 8.0 0.00 0.00 0.00 57 1023.7
20190324165704 50 279 2.0 8.0 0.00 0.00 0.00 57 1023.7
20190324165205 50 295 2.0 8.0 0.00 0.00 0.00 56 1023.7
20190324164704 50 306 2.0 7.0 0.00 0.00 0.00 55 1023.8
20190324164204 50 319 1.0 6.0 0.00 0.00 0.00 55 1023.7
20190324163706 50 319 1.0 7.0 0.00 0.00 0.00 54 1023.8
20190324163205 50 305 1.0 10.0 0.00 0.00 0.00 53 1023.8
20190324162704 50 286 3.0 10.0 0.00 0.00 0.00 52 1023.9
20190324162204 50 311 4.0 10.0 0.00 0.00 0.00 52 1023.9
20190324161705 50 306 2.0 10.0 0.00 0.00 0.00 51 1023.9
20190324161205 50 339 2.0 10.0 0.00 0.00 0.00 49 1024.0
20190324160705 50 322 3.0 10.0 0.00 0.00 0.00 46 1024.1
20190324160204 50 316 3.0 10.0 0.00 0.00 0.00 44 1024.1
20190324155704 50 266 3.0 11.0 0.00 0.00 0.00 43 1024.1
20190324155205 51 290 2.0 11.0 0.00 0.00 0.00 41 1024.1
20190324154704 51 308 2.0 10.0 0.00 0.00 0.00 41 1024.2
20190324154205 51 321 3.0 10.0 0.00 0.00 0.00 43 1024.2
20190324153704 51 284 3.0 13.0 0.00 0.00 0.00 43 1024.3
20190324153205 51 314 4.0 13.0 0.00 0.00 0.00 43 1024.3
20190324152705 51 331 4.0 13.0 0.00 0.00 0.00 42 1024.3
20190324152204 51 315 2.0 8.0 0.00 0.00 0.00 42 1024.3
20190324151704 51 286 2.0 10.0 0.00 0.00 0.00 40 1024.4
20190324151204 51 355 3.0 10.0 0.00 0.00 0.00 39 1024.3
20190324150704 51 272 3.0 11.0 0.00 0.00 0.00 40 1024.4
20190324150205 51 201 3.0 11.0 0.00 0.00 0.00 43 1024.5
20190324145704 51 246 3.0 11.0 0.00 0.00 0.00 46 1024.5
20190324145204 51 355 2.0 10.0 0.00 0.00 0.00 48 1024.5
20190324144705 51 305 2.0 10.0 0.00 0.00 0.00 48 1024.5
20190324144205 51 306 2.0 10.0 0.00 0.00 0.00 49 1024.6
20190324143705 52 271 2.0 11.0 0.00 0.00 0.00 50 1024.8
20190324143205 52 310 3.0 11.0 0.00 0.00 0.00 50 1024.6
20190324142705 52 234 3.0 15.0 0.00 0.00 0.00 51 1024.9
20190324142205 51 13 3.0 15.0 0.00 0.00 0.00 52 1024.9
20190324141704 51 290 5.0 15.0 0.00 0.00 0.00 51 1024.9
20190324141204 51 321 5.0 13.0 0.00 0.00 0.00 51 1025.0
20190324140704 51 291 5.0 11.0 0.00 0.00 0.00 50 1024.9
20190324140205 51 314 4.0 13.0 0.00 0.00 0.00 51 1025.0
20190324135705 51 11 5.0 13.0 0.00 0.00 0.00 53 1025.0
20190324135204 51 301 4.0 13.0 0.00 0.00 0.00 53 1025.0
20190324134705 52 323 3.0 10.0 0.00 0.00 0.00 54 1025.0
20190324134205 52 303 3.0 10.0 0.00 0.00 0.00 54 1025.0
20190324133705 52 337 3.0 10.0 0.00 0.00 0.00 56 1025.0
20190324133205 52 338 3.0 13.0 0.00 0.00 0.00 57 1025.0
20190324132704 52 315 3.0 13.0 0.00 0.00 0.00 58 1025.2
20190324132205 52 296 3.0 15.0 0.00 0.00 0.00 57 1025.1
20190324131705 52 317 3.0 15.0 0.00 0.00 0.00 57 1025.2
20190324131204 52 296 4.0 13.0 0.00 0.00 0.00 58 1025.3
20190324130704 52 296 4.0 10.0 0.00 0.00 0.00 57 1025.4
20190324130204 52 261 2.0 7.0 0.00 0.00 0.00 58 1025.3
20190324125705 52 266 1.0 5.0 0.00 0.00 0.00 63 1025.4
20190324125204 52 340 1.0 11.0 0.00 0.00 0.00 64 1025.4
20190324124704 52 305 2.0 11.0 0.00 0.00 0.00 63 1025.4
20190324124205 52 197 3.0 12.0 0.00 0.00 0.00 64 1025.5
20190324123705 52 277 2.0 12.0 0.00 0.00 0.00 62 1025.4
20190324123205 52 213 3.0 12.0 0.00 0.00 0.00 65 1025.5
20190324122704 52 316 4.0 13.0 0.00 0.00 0.00 66 1025.5
20190324122204 51 315 4.0 13.0 0.00 0.00 0.00 66 1025.6
20190324121705 51 301 2.0 7.0 0.00 0.00 0.00 67 1025.7
20190324121205 51 319 1.0 9.0 0.00 0.00 0.00 68 1025.7
20190324120705 51 311 1.0 9.0 0.00 0.00 0.00 68 1025.7
20190324120205 51 355 1.0 10.0 0.00 0.00 0.00 68 1025.8
20190324115704 51 310 1.0 10.0 0.00 0.00 0.00 69 1025.7
20190324115205 51 63 1.0 10.0 0.00 0.00 0.00 69 1025.8
20190324114704 51 312 0.0 5.0 0.00 0.00 0.00 69 1025.9
20190324114205 51 215 0.0 5.0 0.00 0.00 0.00 67 1025.9
20190324113705 51 5 0.0 5.0 0.00 0.00 0.00 67 1025.9
20190324113205 52 262 0.0 7.0 0.00 0.00 0.00 66 1026.0
20190324112704 52 11 1.0 7.0 0.00 0.00 0.00 68 1026.0
20190324112205 52 315 1.0 7.0 0.00 0.00 0.00 68 1026.1
20190324111704 51 103 0.0 6.0 0.00 0.00 0.00 68 1026.0
20190324111205 51 40 0.0 6.0 0.00 0.00 0.00 68 1026.1
20190324110705 51 109 1.0 10.0 0.00 0.00 0.00 69 1026.2
20190324110204 51 15 1.0 10.0 0.00 0.00 0.00 71 1026.4
20190324105705 50 23 2.0 10.0 0.00 0.00 0.00 71 1026.6
20190324105205 50 336 2.0 7.0 0.00 0.00 0.00 72 1026.6
20190324104705 50 304 1.0 7.0 0.00 0.00 0.00 73 1026.7
20190324104204 50 292 1.0 7.0 0.00 0.00 0.00 74 1026.7
20190324103705 50 41 1.0 7.0 0.00 0.00 0.00 75 1026.7
20190324103205 50 334 0.0 2.0 0.00 0.00 0.00 77 1026.7
20190324102704 49 34 0.0 1.0 0.00 0.00 0.00 77 1026.8
20190324102204 49 308 0.0 1.0 0.00 0.00 0.00 79 1026.7